Dewpoint
53 43 42 37 24 25 17 16 23 22 22 21 26 28 32 34 39 30 60 66 67 69 71 71 72 73 73 73 73 73 74 73 73 73 73 73 73 73 73 73 72 71 71 69 69 70 70 71 71
45 41 37 33 20 12 14 22 23 25 25 27 26 27 41 35 51 50 62 65 67 69 71 70 72 72 72 72 73 73 74 74 73 73 73 73 73 73 73 72 71 71 71 69 68 68 69 70 71
41 39 36 29 26 13 20 25 26 26 26 27 23 25 30 36 57 52 64 66 67 68 70 70 71 71 72 72 72 73 73 73 73 73 73 73 73 73 72 71 71 71 70 69 68 67 68 68 70
37 35 31 29 23 26 25 26 27 25 24 26 23 21 50 60 57 59 66 68 67 68 69 71 70 71 72 72 72 72 72 72 72 72 73 73 73 72 72 71 71 71 70 69 68 67 68 69 68
34 33 29 27 25 26 27 27 27 24 24 25 24 28 44 60 65 66 67 67 68 68 69 72 70 71 72 72 72 72 71 71 71 72 72 72 72 72 71 71 70 70 70 69 68 67 69 69 68
31 31 27 21 23 26 27 28 25 25 25 27 27 33 44 61 64 66 68 67 68 69 70 71 71 70 71 71 71 71 71 71 71 71 71 72 71 71 71 70 70 69 69 67 66 68 69 69 69
28 29 25 25 25 24 24 26 26 26 26 26 32 28 43 45 64 66 67 68 69 69 70 71 71 70 70 70 70 70 70 70 70 70 70 71 70 70 70 70 70 69 67 66 66 68 68 67 67
29 28 25 24 21 20 24 27 28 27 26 27 38 25 28 48 66 66 66 67 68 69 70 70 71 70 70 71 69 69 69 69 70 70 70 69 70 70 69 69 69 68 66 65 65 66 67 67 67
28 25 23 22 22 22 26 26 27 28 27 26 28 25 32 57 65 66 66 66 66 67 69 70 70 70 70 70 70 70 70 69 69 70 70 69 70 70 70 68 68 66 65 64 64 65 67 66 66
28 26 23 25 25 25 27 27 27 27 27 27 28 30 38 59 62 63 64 64 65 66 66 68 69 68 69 69 70 71 70 70 70 70 71 71 71 70 69 68 66 66 65 64 64 66 66 65 65
28 27 28 27 27 27 26 26 27 27 26 27 28 30 34 50 58 61 62 63 65 66 66 66 68 69 68 69 70 70 70 70 69 70 70 71 70 70 70 69 68 66 64 60 62 65 63 64 63
26 27 27 26 27 26 26 27 27 28 29 30 30 30 29 29 36 52 59 61 64 65 66 66 66 67 69 68 69 70 70 70 69 69 70 69 68 67 68 67 67 66 65 61 61 63 63 63 62
26 26 27 27 30 31 30 29 29 29 32 31 31 29 27 30 35 46 58 62 63 64 66 66 66 66 67 68 68 69 69 70 70 69 69 69 67 66 66 67 65 66 64 63 63 62 61 60 61
28 30 31 32 31 32 30 30 29 29 30 29 28 26 31 39 43 45 50 53 59 63 64 67 66 67 67 66 67 68 68 70 70 69 69 68 67 66 66 65 64 64 63 62 62 61 60 59 60
32 30 30 31 30 29 31 28 28 30 30 30 26 26 37 40 41 45 50 56 57 55 57 66 67 68 67 67 66 66 67 69 69 69 69 68 66 65 65 65 63 62 60 60 61 61 60 58 58
29 30 29 30 30 29 29 26 30 31 29 28 26 37 35 30 34 41 50 56 59 61 58 58 66 67 68 67 66 66 67 68 69 68 68 67 66 65 64 64 62 61 58 58 59 59 57 56 56
29 27 28 27 30 30 28 27 28 30 28 30 35 32 26 23 23 28 37 52 58 61 59 51 65 67 68 67 66 67 66 67 68 67 67 66 66 65 64 63 62 60 58 57 57 56 56 54 54
25 25 27 27 28 29 28 28 29 30 31 36 31 25 21 20 19 23 26 33 46 57 62 63 65 67 67 67 67 66 66 66 67 66 66 65 65 64 63 62 62 59 56 56 57 56 55 54 53
26 26 27 28 29 29 29 28 28 30 34 31 23 18 18 20 23 24 27 28 31 37 54 58 61 61 65 66 65 65 64 65 65 66 65 65 64 64 63 62 59 59 56 57 56 55 53 51 50
28 28 28 29 30 30 28 26 27 27 27 20 15 16 19 25 27 30 32 34 34 32 36 52 56 55 57 59 59 60 62 61 62 62 64 64 63 62 62 60 58 57 56 57 57 55 53 53 52
30 30 30 30 29 26 25 25 23 20 16 14 16 18 20 24 27 29 32 34 35 36 37 37 47 58 59 57 56 57 58 59 59 60 60 61 62 62 62 61 57 56 56 55 54 53 52 50 50
31 31 31 30 28 26 25 25 27 19 14 12 17 22 25 27 29 30 28 30 35 36 40 40 41 42 53 59 58 55 55 55 57 58 59 60 61 61 60 60 59 57 56 54 54 53 53 51 49
32 33 30 29 28 27 26 24 23 16 12 12 17 24 27 28 29 29 29 28 29 35 37 38 40 40 43 46 57 57 56 57 57 57 57 57 58 60 60 60 60 58 57 56 54 54 53 52 51
34 28 29 26 25 23 25 24 22 19 16 13 19 26 27 28 28 27 28 30 29 31 36 38 38 38 40 45 47 53 56 55 55 55 55 56 57 57 58 58 59 58 57 55 55 54 53 52 51
28 31 28 26 23 23 25 23 24 12 14 18 25 26 26 27 28 28 28 28 30 32 35 37 36 36 40 42 44 47 50 52 53 54 55 55 55 55 56 57 56 57 56 55 54 54 53 53 52
31 31 29 26 22 24 26 25 21 13 23 27 27 27 25 26 29 29 30 31 32 34 37 38 38 39 40 41 42 46 46 50 52 52 53 55 55 55 55 56 56 56 56 56 55 54 53 53 53
29 26 29 29 27 26 25 15 11 16 24 27 28 26 26 28 30 30 32 34 35 35 37 39 40 40 42 43 43 46 46 47 47 48 50 52 54 54 55 56 56 56 55 55 55 53 52 52 52
31 30 29 33 28 24 23 24 23 14 24 28 28 28 28 29 30 31 32 34 34 35 38 41 41 40 42 44 44 45 46 46 46 48 49 50 52 53 54 54 55 55 56 55 54 53 52 51 51
30 27 29 32 34 27 25 23 18 24 27 27 28 27 29 30 30 32 33 33 35 37 38 40 41 41 43 44 44 45 45 46 45 46 48 48 49 50 52 53 53 53 52 54 54 53 52 51 50
28 28 30 32 30 33 30 28 25 27 26 25 26 27 29 29 29 32 32 35 36 36 37 39 40 40 43 45 44 45 44 44 43 42 42 43 44 46 47 48 49 52 52 53 53 52 52 51 50
Lifted_Index
9 9 8 6 4 3 2 3 4 3 3 3 2 2 1 0 0 -0 -2 -3 -4 -4 -5 -5 -5 -5 -5 -5 -5 -5 -5 -5 -5 -6 -6 -6 -6 -6 -6 -6 -6 -6 -5 -5 -5 -5 -5 -6 -6
9 8 7 6 4 2 2 3 4 4 3 3 2 2 2 0 -1 -1 -3 -4 -4 -4 -5 -5 -5 -5 -4 -5 -5 -5 -6 -6 -5 -6 -6 -6 -6 -6 -6 -6 -5 -5 -5 -5 -5 -5 -5 -5 -6
9 8 7 5 3 2 3 4 4 4 3 3 3 3 2 -0 -1 -2 -3 -4 -4 -4 -5 -5 -4 -4 -4 -4 -5 -5 -5 -5 -5 -5 -5 -5 -5 -5 -5 -5 -5 -5 -5 -4 -4 -4 -4 -5 -5
9 8 6 4 3 3 4 4 4 4 4 4 4 3 1 -1 -2 -2 -3 -4 -4 -4 -5 -5 -5 -4 -4 -4 -5 -5 -5 -5 -5 -5 -5 -5 -5 -5 -5 -4 -4 -4 -4 -4 -3 -3 -4 -5 -5
8 7 5 3 3 4 4 4 4 5 4 4 4 3 1 -2 -3 -3 -3 -4 -4 -4 -4 -5 -5 -4 -4 -4 -4 -4 -4 -4 -4 -5 -5 -5 -5 -5 -4 -4 -4 -4 -3 -3 -3 -3 -4 -5 -5
8 6 4 3 3 4 4 4 4 5 5 5 5 3 1 -2 -3 -3 -3 -4 -4 -4 -4 -5 -4 -4 -4 -4 -4 -4 -4 -4 -4 -4 -4 -5 -5 -4 -4 -4 -3 -3 -3 -2 -2 -3 -4 -4 -4
8 6 4 3 2 3 5 5 4 5 5 5 5 4 2 -0 -3 -3 -3 -4 -4 -4 -4 -4 -4 -4 -4 -4 -4 -4 -3 -3 -3 -4 -4 -4 -4 -4 -4 -4 -3 -3 -2 -1 -1 -2 -3 -3 -3
8 6 4 3 3 3 5 5 5 5 5 5 5 4 3 0 -2 -4 -4 -4 -4 -4 -4 -4 -4 -4 -4 -4 -4 -3 -3 -3 -3 -3 -4 -4 -4 -4 -4 -4 -3 -2 -1 -0 -0 -1 -3 -3 -3
7 6 4 3 3 4 5 6 5 5 5 5 5 5 4 0 -2 -4 -4 -4 -3 -3 -4 -4 -4 -4 -4 -4 -4 -3 -3 -3 -3 -3 -3 -4 -4 -4 -4 -4 -3 -2 -0 0 -0 -1 -2 -3 -3
6 5 4 4 5 5 5 5 5 5 4 4 4 4 4 1 -2 -3 -4 -4 -4 -4 -3 -3 -3 -4 -4 -4 -4 -3 -3 -3 -3 -3 -3 -3 -3 -3 -4 -3 -2 -1 -0 0 -0 -1 -2 -3 -3
6 5 5 5 5 5 5 5 5 4 4 4 4 4 4 3 0 -2 -3 -4 -4 -4 -3 -3 -3 -3 -3 -3 -3 -3 -3 -3 -3 -3 -3 -3 -3 -3 -3 -2 -2 -2 -1 0 -0 -1 -2 -2 -3
5 5 5 5 5 5 4 4 4 4 4 4 4 5 5 5 3 1 -2 -3 -4 -3 -3 -3 -2 -2 -3 -3 -3 -3 -3 -3 -3 -3 -3 -2 -2 -2 -2 -2 -2 -2 -2 -0 -0 -1 -1 -1 -2
5 5 4 4 4 4 4 4 4 4 4 5 5 5 5 5 5 3 1 -2 -2 -3 -3 -3 -2 -2 -2 -2 -3 -3 -4 -3 -3 -3 -3 -2 -2 -2 -2 -2 -2 -2 -2 -1 -0 -0 -0 -1 -1
5 5 4 4 4 4 4 4 4 4 4 4 5 5 5 5 5 5 3 2 0 -1 -2 -3 -3 -3 -3 -3 -3 -3 -4 -4 -4 -4 -3 -3 -2 -3 -3 -3 -2 -2 -3 -2 -0 0 1 1 0
6 5 4 4 4 4 4 4 4 4 4 4 4 5 5 6 6 6 5 4 3 2 0 -2 -3 -3 -3 -3 -3 -3 -4 -4 -4 -4 -3 -3 -3 -3 -3 -3 -3 -3 -2 -2 -0 1 2 1 1
5 5 4 4 4 4 4 4 4 4 5 5 5 5 5 6 6 6 5 4 3 3 2 1 -2 -3 -3 -4 -4 -4 -4 -4 -4 -4 -3 -3 -3 -3 -3 -3 -3 -3 -2 -1 0 1 2 2 2
5 4 4 4 4 5 5 4 4 5 5 5 5 5 6 6 7 7 7 6 4 3 3 2 -1 -3 -4 -4 -4 -4 -5 -4 -4 -4 -3 -3 -3 -4 -4 -3 -3 -2 -1 -1 0 2 3 3 2
5 4 4 4 4 5 5 5 5 5 5 5 5 6 6 7 8 9 9 8 6 4 3 1 -1 -3 -3 -4 -4 -4 -5 -5 -5 -4 -3 -3 -3 -4 -4 -3 -2 -2 -1 -1 -0 1 3 3 3
5 4 4 4 5 5 5 5 5 5 5 5 5 6 6 7 9 10 10 10 9 7 5 3 1 -0 -2 -3 -4 -4 -5 -5 -5 -4 -4 -3 -3 -4 -3 -3 -2 -2 -2 -2 -1 0 2 3 4
5 4 4 4 4 5 5 5 5 5 5 6 6 7 7 8 10 11 12 12 12 11 10 8 5 2 0 -1 -2 -4 -4 -4 -4 -4 -4 -3 -3 -3 -3 -2 -2 -2 -2 -2 -1 -0 1 3 4
4 4 4 4 4 4 4 4 5 5 6 7 7 8 9 10 11 13 14 14 14 13 13 12 9 6 3 2 0 -1 -2 -3 -3 -2 -2 -2 -3 -3 -3 -2 -2 -2 -2 -1 -1 -1 0 2 3
4 4 4 4 4 4 4 4 5 6 7 7 8 10 12 13 14 15 16 16 16 15 15 14 12 9 6 4 3 1 0 -1 -0 -0 -0 -0 -1 -1 -2 -2 -2 -2 -1 -1 -1 -1 0 1 2
3 3 4 4 4 4 4 4 5 6 7 7 9 12 14 15 16 17 17 17 17 16 15 14 13 11 9 7 5 3 2 1 1 2 2 2 1 0 -0 -1 -1 -1 -1 -1 -1 -0 0 1 2
3 3 4 4 3 4 4 5 5 6 7 8 10 13 15 17 17 17 17 17 16 15 14 12 11 10 10 9 7 5 3 2 2 2 2 2 2 2 1 -0 -1 -0 -0 -0 -0 -0 0 1 2
3 3 3 2 2 3 4 5 6 7 9 10 12 14 16 17 17 17 16 15 14 13 12 10 9 8 9 9 8 7 5 4 3 3 2 2 3 3 2 1 0 0 1 1 0 1 1 1 2
4 3 3 2 1 3 4 5 6 9 11 12 13 15 16 16 16 16 15 14 13 12 10 9 8 8 8 8 8 7 6 5 5 4 4 3 3 3 2 2 2 1 1 2 1 1 2 2 1
4 4 4 3 2 2 4 5 6 8 10 12 13 15 15 15 15 14 13 12 11 10 9 9 8 8 8 8 8 7 7 6 6 6 5 4 3 3 3 2 2 2 2 2 2 2 2 2 2
4 4 4 4 2 2 3 5 6 7 9 10 12 14 14 14 13 12 11 10 9 8 8 8 8 8 7 7 7 7 7 7 7 7 6 5 4 4 3 3 2 2 2 3 3 3 3 3 3
5 5 5 4 3 2 3 5 6 7 8 10 12 13 13 12 12 10 9 8 8 8 7 7 7 7 6 6 6 6 7 7 7 7 6 5 5 5 4 3 3 2 3 3 3 3 3 3 3
6 6 5 4 4 4 4 5 7 8 9 11 12 12 12 11 10 9 8 7 7 7 7 6 6 6 5 5 6 7 7 8 8 8 7 6 6 5 5 4 3 3 3 3 3 3 3 3 3